Regional Weather Roundup
Issued by NWS

Home | Current Version | Previous Version | Text Only | Print | Product List | Glossary On
Versions: 1 2 3 4 5 6 7 8 9 10 11 12 13 14 15 16 17 18 19 20 21 22 23 24 25 26 27 28 29 30 31 32 33 34 35 36 37 38 39 40 41 42 43 44 45 46 47 48 49 50
550
ASUS43 KLMK 301302
RWRKY
KENTUCKY REGIONAL WEATHER ROUNDUP
NATIONAL WEATHER SERVICE LOUISVILLE KY
900 AM EDT MON MAY 30 2016

NOTE "FAIR" INDICATES FEW OR NO CLOUDS BELOW 12,000 FEET
WITH NO SIGNIFICANT WEATHER AND/OR OBSTRUCTIONS TO VISIBILITY.

KYZ001>023-026-027-061>063-070>075-301400-
WESTERN AND SOUTH CENTRAL KENTUCKY

CITY           SKY/WX    TMP DP  RH WIND       PRES   REMARKS
PADUCAH        SUNNY     74  63  68 CALM      30.07R
HENDERSON        N/A     72  61  68 NE5       30.05S VSB 1/4
OWENSBORO      SUNNY     74  64  70 NE5       30.07S
HOPKINSVILLE   NOT AVBL
BOWLING GREEN  SUNNY     76  64  66 VRB3      30.06S
GLASGOW        NOT AVBL
$$

KYZ024-025-028>034-038-045-046-053-301400-
NORTH CENTRAL KENTUCKY

CITY           SKY/WX    TMP DP  RH WIND       PRES   REMARKS
LOUISVILLE/SDF MOSUNNY   76  61  59 N5        30.05S
LOUISVILLE/LOU MOSUNNY   74  61  63 N5        30.06S
FORT KNOX      SUNNY     71  62  73 NW3       30.05F
$$

KYZ035>037-039>044-047>052-055>060-089>105-301400-
NORTHEAST KENTUCKY

CITY           SKY/WX    TMP DP  RH WIND       PRES   REMARKS
LEXINGTON      SUNNY     72  65  78 W3        30.06S
COVINGTON      MOSUNNY   73  66  78 N5        30.06R
FRANKFORT      SUNNY     73  64  73 N3        30.05R
$$

KYZ054-064>069-076>088-106>120-301400-
SOUTHEAST KENTUCKY

CITY           SKY/WX    TMP DP  RH WIND       PRES   REMARKS
JACKSON        SUNNY     70  63  78 CALM      30.07R
LONDON         CLOUDY    69  64  84 SW7       30.07R
SOMERSET       NOT AVBL
MIDDLESBORO    CLOUDY    63  63 100 CALM      30.09S
MONTICELLO     SUNNY     72  66  81 N8        30.09R
$$





USA.gov is the U.S. government's official web portal to all federal, state and local government web resources and services.